Station NCDV2 - 8635027 - Dahlgren, VA Image indicating link to RSS feed of recent meteorological observations for station NCDV2


Conditions at NCDV2 as of
(8:18 pm EDT on 04/15/2024)
0018 GMT on 04/16/2024:
     

Click on the graph icon in the table below to see a time series plot of the last five days of that observation.

5-day plot - Wind Direction Wind Direction (WDIR):WSW ( 250 deg true )
5-day plot - Wind Speed Wind Speed (WSPD): 2.9 kts
5-day plot - Wind Gust Wind Gust (GST): 4.1 kts
5-day plot - Atmospheric Pressure Atmospheric Pressure (PRES):29.84 in
5-day plot - Water Temperature Water Temperature (WTMP): 64.4 °F
5-day plot - Wind Speed at 10 Meters Wind Speed at 10 meters (WSPD10M): 3.9 kts
5-day plot - Wind Speed at 20 Meters Wind Speed at 20 meters (WSPD20M): 3.9 kts
5-day plot -  Wind Speed, Wind Gust and Atmospheric Pressure Combined plot of Wind Speed, Gust, and Air Pressure
NOS Water Level Observation Network Water Level
Previous observations
TIME
(EDT)
5-day plot - Wind Direction
WDIR
 
5-day plot - Wind Speed
WSPD
kts
5-day plot - Wind Gust
GST
kts
5-day plot - Wave Height
WVHT
ft
5-day plot - Dominant Wave Period
DPD
sec
5-day plot - Average Wave Period
APD
sec
5-day plot - Mean Wave Direction
MWD
 
5-day plot - Atmospheric Pressure
PRES
in
5-day plot - Pressure Tendency
PTDY
in
5-day plot - Air Temperature
ATMP
°F
5-day plot - Water Temperature
WTMP
°F
5-day plot - Dew Point
DEWP
°F
5-day plot - Salinity
SAL
psu
5-day plot - Visibility
VIS
nmi
5-day plot - Tide (above MLLW)
TIDE
ft
2024-04-15 08:12 pmSSW 2.9 4.1----29.83-- 64.4----
2024-04-15 08:06 pm W 1.9 2.9----29.83-- 64.6----
2024-04-15 07:54 pmWSW 1.9 2.9----29.82- 64.9 64.6----
2024-04-15 07:36 pmSSW 1.0 1.9----29.81- 65.3 64.8----
2024-04-15 07:30 pm- 0.0 1.0----29.81- 65.1 64.6----
2024-04-15 07:24 pm NW 1.0 1.9----29.81- 64.8 64.8----
2024-04-15 06:42 pmSSE 5.1 8.0----29.80- 65.5 64.2----
2024-04-15 06:36 pm SE 5.1 6.0----29.80- 65.5 62.6----
2024-04-15 06:30 pmSSE 7.0 8.0----29.80-- 61.0----
2024-04-15 06:24 pmSSE 5.1 6.0----29.82-- 61.3----
2024-04-15 06:18 pmSSW 5.1 8.0----29.83- 66.4 61.5----
2024-04-15 06:12 pm SW 4.1 6.0----29.82- 66.0 61.9----
2024-04-15 06:06 pmWNW 5.1 11.1----29.82- 65.5 62.1----
2024-04-15 06:00 pm S 2.9 6.0----29.79+0.00 67.1 61.9----
2024-04-15 05:54 pm S 5.1 7.0----29.79- 67.1 61.9----
2024-04-15 05:48 pmWSW 7.0 15.9----29.82- 66.4 62.6----
2024-04-15 05:42 pm NW 1.9 2.9----29.80- 65.5 63.3----
2024-04-15 05:24 pm N 1.0 5.1----29.79- 65.1 66.4----
2024-04-15 05:18 pm N 5.1 8.9------ 65.1 66.4----
2024-04-15 05:12 pmENE 5.1 6.0------ 64.8 66.2----
2024-04-15 05:06 pm N 5.1 12.0------ 65.7 66.0----
2024-04-15 05:00 pmWNW 4.1 9.9----29.79-0.01 66.4 66.9----
2024-04-15 04:54 pm NE 5.1 14.0----29.78- 64.2 67.3----
2024-04-15 04:48 pm N 4.1 12.0----29.80- 70.9 67.3----
2024-04-15 04:42 pm N 8.9 22.9----29.78- 73.9 67.3----
2024-04-15 04:36 pmNNE 6.0 17.1----29.78- 80.8 67.1----
2024-04-15 04:30 pm W 1.9 7.0----29.76- 82.9 67.1----
2024-04-15 04:24 pmSSW 7.0 11.1----29.74- 84.0 67.3----
2024-04-15 04:18 pmSSW 8.0 13.0----29.74- 84.6 67.3----
2024-04-15 04:12 pmSSW 7.0 9.9----29.75- 84.4 67.3----
2024-04-15 04:06 pm SW 5.1 11.1----29.75- 84.0 66.9----
2024-04-15 04:00 pmWSW 9.9 14.0----29.76-0.06 85.3 66.4----
2024-04-15 03:54 pmWSW 11.1 15.0----29.76- 84.7 65.1----
2024-04-15 03:48 pm SW 11.1 15.0----29.76- 84.7 64.0----
2024-04-15 03:42 pm SW 9.9 15.0----29.76- 84.9 64.2----
2024-04-15 03:36 pmWSW 9.9 14.0----29.77- 84.9 64.2----
2024-04-15 03:30 pmWSW 8.9 12.0----29.78- 84.7 64.4----
2024-04-15 03:24 pmWSW 8.0 11.1----29.78- 84.7 64.6----
2024-04-15 03:18 pmWSW 6.0 8.9----29.78- 85.6 64.8----
2024-04-15 03:12 pmWSW 8.9 18.1----29.78- 84.7 64.8----
2024-04-15 03:06 pmWSW 5.1 7.0----29.79- 83.8 64.9----
2024-04-15 03:00 pm W 6.0 12.0----29.79-0.04 85.5 65.1----
2024-04-15 02:54 pm SW 8.0 12.0----29.79- 84.9 65.5----
2024-04-15 02:48 pm W 6.0 9.9----29.79- 84.9 65.5----
2024-04-15 02:42 pm SW 1.9 6.0----29.80- 83.8 65.3----
2024-04-15 02:36 pmSSE 4.1 8.9----29.80- 82.4 65.1----
2024-04-15 02:30 pm SE 5.1 6.0----29.80- 78.4 64.9----
2024-04-15 02:24 pmESE 1.9 4.1----29.80- 82.9 64.6----
2024-04-15 02:18 pmESE 2.9 7.0----29.80- 77.7 64.4----
2024-04-15 02:12 pm E 6.0 9.9----29.80- 78.6 64.0----
2024-04-15 02:06 pm SE 2.9 6.0----29.80- 76.6 63.7----
2024-04-15 02:00 pm SE 5.1 6.0----29.80-0.05 76.8 63.1----
2024-04-15 01:54 pmSSE 5.1 6.0----29.80- 78.1 62.4----
2024-04-15 01:48 pm E 5.1 9.9----29.80- 77.7 61.2----
2024-04-15 01:42 pm SE 7.0 9.9----29.80- 71.8 60.4----
2024-04-15 01:36 pm SE 5.1 7.0----29.80- 70.3 60.1----
2024-04-15 01:30 pm SE 6.0 8.0----29.81- 70.9 60.1----
2024-04-15 01:24 pm SE 6.0 8.0----29.81- 73.0 60.1----
2024-04-15 01:18 pm E 6.0 8.0----29.81- 74.8 60.1----
2024-04-15 01:12 pmESE 6.0 7.0----29.81- 75.7 60.1----
2024-04-15 01:06 pm E 5.1 7.0----29.82- 79.0 60.1----
2024-04-15 01:00 pmESE 4.1 7.0----29.82-0.04 71.4 60.1----
2024-04-15 12:54 pmESE 5.1 6.0----29.82- 72.9 60.1----
2024-04-15 12:48 pm E 4.1 7.0----29.82- 73.4 60.1----
2024-04-15 12:42 pmESE 5.1 6.0----29.83- 72.3 60.1----
2024-04-15 12:36 pmESE 5.1 8.0----29.83- 72.5 59.9----
2024-04-15 12:30 pm SE 6.0 7.0----29.83- 72.0 59.9----
2024-04-15 12:24 pm E 2.9 6.0----29.83- 75.4 59.9----
2024-04-15 12:18 pmESE 5.1 7.0----29.83- 75.4 59.9----
2024-04-15 12:12 pm- 0.0 1.9----29.83- 80.6 59.9----
2024-04-15 12:06 pm E 2.9 5.1----29.83- 76.6 59.9----
2024-04-15 12:00 pm SE 2.9 5.1----29.83-0.02 75.0 59.9----
2024-04-15 11:54 amSSE 1.9 7.0----29.83- 75.7 59.9----
2024-04-15 11:48 amESE 6.0 8.0----29.84- 72.3 59.9----
2024-04-15 11:42 amESE 4.1 7.0----29.84- 73.0 59.9----
2024-04-15 11:36 am E 2.9 5.1----29.84- 74.7 59.9----
2024-04-15 11:30 am E 4.1 6.0----29.84- 73.8 59.9----
2024-04-15 11:24 am E 5.1 8.0----29.85- 72.5 59.9----
2024-04-15 11:18 amESE 4.1 5.1----29.85- 73.4 59.9----
2024-04-15 11:12 am E 4.1 6.0----29.85- 74.8 59.9----
2024-04-15 11:06 amESE 4.1 5.1----29.85- 73.6 59.9----
2024-04-15 11:00 am E 2.9 7.0----29.85+0.02 73.6 60.1----
2024-04-15 10:54 am E 5.1 7.0----29.85- 71.8 60.1----
2024-04-15 10:48 am E 5.1 7.0----29.85- 72.0 60.1----
2024-04-15 10:42 am E 5.1 7.0----29.86- 71.8 60.1----
2024-04-15 10:36 am E 5.1 8.0----29.86- 71.1 60.1----
2024-04-15 10:30 am S 2.9 5.1----29.86-- 60.1----
2024-04-15 10:24 am SW 1.9 2.9----29.86-- 60.1----
2024-04-15 10:18 am- 0.0 1.0----29.86- 77.7 60.3----
2024-04-15 10:12 amWNW 1.0 4.1----29.85- 77.0 60.3----
2024-04-15 10:06 amWSW 2.9 6.0----29.85- 75.2 60.3----
2024-04-15 10:00 am W 5.1 8.0----29.85+0.04 74.5 60.3----
2024-04-15 09:54 amWSW 5.1 6.0----29.85- 73.9 60.3----
2024-04-15 09:48 amWSW 4.1 5.1----29.86- 73.2 60.3----
2024-04-15 09:42 amWSW 4.1 6.0----29.86- 73.4 60.3----
2024-04-15 09:36 am W 2.9 7.0----29.86- 73.6 60.3----
2024-04-15 09:30 amWSW 4.1 6.0----29.85- 72.5 60.3----
2024-04-15 09:24 amWSW 5.1 7.0----29.85- 71.8 60.4----
2024-04-15 09:18 amWSW 4.1 6.0----29.85- 71.1 60.4----
2024-04-15 09:12 amWSW 2.9 4.1----29.85- 70.9 60.4----
2024-04-15 09:06 amWNW 1.9 4.1----29.85- 71.2 60.4----
2024-04-15 09:00 amWSW 1.9 5.1----29.85+0.05 70.0 60.4----
2024-04-15 08:54 amWSW 2.9 5.1----29.85- 69.4 60.4----
2024-04-15 08:48 amWSW 4.1 5.1----29.85- 68.9 60.4----
2024-04-15 08:42 amWSW 2.9 4.1----29.85- 68.4 60.4----
2024-04-15 08:36 amWSW 1.9 2.9----29.85- 68.5 60.4----
2024-04-15 08:30 amWNW 1.0 1.9----29.85- 69.6 60.4----
2024-04-15 08:24 amWSW 1.9 1.9----29.84- 67.5 60.4----
2024-04-15 08:18 am W 1.9 2.9----29.84- 66.7 60.3----
2024-04-15 08:12 amWSW 2.9 5.1----29.84- 66.2 60.3----
2024-04-15 08:06 amWSW 2.9 5.1----29.84- 65.5 60.3----
2024-04-15 08:00 am SW 2.9 4.1----29.83+0.05 65.5 60.3----
2024-04-15 07:54 am SW 2.9 5.1----29.84- 65.1 60.3----
2024-04-15 07:48 am SW 4.1 5.1----29.83- 64.9 60.3----
2024-04-15 07:42 amWSW 4.1 6.0----29.83- 64.8 60.3----
2024-04-15 07:36 amWSW 2.9 5.1----29.83- 64.8 60.3----
2024-04-15 07:30 amWSW 1.9 2.9----29.83- 64.2 60.3----
2024-04-15 07:24 am SW 2.9 5.1----29.83- 64.4 60.3----
2024-04-15 07:18 am SW 4.1 6.0----29.82- 64.2 60.3----
2024-04-15 07:12 amSSW 5.1 5.1----29.82- 64.0 60.3----
2024-04-15 07:06 am S 4.1 6.0----29.82- 63.9 60.3----
2024-04-15 07:00 amSSW 5.1 6.0----29.81+0.06 64.0 60.3----
2024-04-15 06:54 amSSW 4.1 7.0----29.81- 63.5 60.4----
2024-04-15 06:48 amSSW 6.0 8.0----29.81- 64.0 60.4----
2024-04-15 06:42 amSSW 4.1 6.0----29.81- 62.6 60.6----
2024-04-15 06:36 amSSW 6.0 6.0----29.80- 62.6 60.6----
2024-04-15 06:30 am S 5.1 6.0----29.80- 62.1 60.8----
2024-04-15 06:24 amSSW 5.1 6.0----29.80- 61.5 61.0----
2024-04-15 06:18 am S 4.1 4.1----29.80- 62.1 61.0----
2024-04-15 06:12 am S 2.9 5.1----29.80- 62.8 61.0----
2024-04-15 06:06 amSSE 2.9 4.1----29.80- 63.0 61.0----
2024-04-15 06:00 am SE 2.9 4.1----29.80+0.06 63.0 61.0----
2024-04-15 05:54 amSSE 1.9 4.1----29.80- 62.4 61.2----
2024-04-15 05:48 am SE 4.1 7.0----29.79- 63.1 61.2----
2024-04-15 05:42 amSSE 1.9 4.1----29.79- 63.1 61.2----
2024-04-15 05:36 amWSW 1.9 1.9----29.80- 64.4 61.2----
2024-04-15 05:30 am- 0.0 1.0----29.80- 64.9 61.2----
2024-04-15 05:24 am- 0.0 2.9----29.80- 65.3 61.2----
2024-04-15 05:18 am N 1.9 2.9----29.79- 65.7 61.2----
2024-04-15 05:12 am N 1.0 4.1----29.79- 66.2 61.2----
2024-04-15 05:06 am NE 1.9 4.1----29.78- 66.4 61.2----
2024-04-15 05:00 amNNE 1.9 2.9----29.78+0.04 66.2 61.2----
2024-04-15 04:54 am N 1.0 2.9----29.78- 66.6 61.2----
2024-04-15 04:48 am N 1.9 5.1----29.77- 66.7 61.3----
2024-04-15 04:42 amNNE 1.0 5.1----29.77- 67.1 61.3----
2024-04-15 04:36 am NE 1.9 5.1----29.76- 67.5 61.3----
2024-04-15 04:30 amENE 1.0 4.1----29.76- 67.8 61.3----
2024-04-15 04:24 am W 1.0 7.0----29.76- 68.9 61.3----
2024-04-15 04:18 amWSW 6.0 8.9----29.75- 69.4 61.3----
2024-04-15 04:12 amWSW 7.0 11.1----29.75- 70.2 61.3----
2024-04-15 04:06 amWSW 7.0 11.1----29.75- 70.2 61.3----
2024-04-15 04:00 am W 7.0 11.1----29.75+0.00 70.5 61.3----
2024-04-15 03:54 amWSW 8.0 11.1----29.75- 70.9 61.3----
2024-04-15 03:48 amWSW 8.9 12.0----29.75- 71.1 61.3----
2024-04-15 03:42 amWSW 7.0 11.1----29.75- 70.7 61.3----
2024-04-15 03:36 amWSW 8.9 11.1----29.74- 71.2 61.3----
2024-04-15 03:30 amWSW 8.9 13.0----29.74- 71.1 61.3----
2024-04-15 03:24 amWSW 8.9 14.0----29.74- 71.4 61.3----
2024-04-15 03:18 amWSW 8.9 12.0----29.74- 71.2 61.3----
2024-04-15 03:12 amWSW 9.9 13.0----29.74- 71.6 61.3----
2024-04-15 03:06 amWSW 11.1 13.0----29.74- 71.6 61.3----
2024-04-15 03:00 amWSW 8.0 13.0----29.74-0.01 71.4 61.3----
2024-04-15 02:54 amWSW 9.9 12.0----29.74- 71.2 61.3----
2024-04-15 02:48 amWSW 9.9 12.0----29.74- 71.2 61.3----
2024-04-15 02:42 amWSW 9.9 12.0----29.74- 71.4 61.3----
2024-04-15 02:36 amWSW 11.1 14.0----29.74- 71.4 61.3----
2024-04-15 02:30 amWSW 9.9 14.0----29.74- 71.2 61.3----
2024-04-15 02:24 amWSW 9.9 14.0----29.74- 71.6 61.3----
2024-04-15 02:18 amWSW 11.1 14.0----29.74- 71.8 61.3----
2024-04-15 02:12 amWSW 8.9 14.0----29.74- 71.2 61.3----
2024-04-15 02:06 amWSW 9.9 14.0----29.75- 71.8 61.2----
2024-04-15 02:00 amWSW 9.9 12.0----29.75+0.00 71.8 61.0----
2024-04-15 01:54 amWSW 11.1 14.0----29.75- 72.0 61.0----
2024-04-15 01:48 amWSW 9.9 13.0----29.75- 71.8 61.2----
2024-04-15 01:42 amWSW 9.9 13.0----29.75- 72.0 61.2----
2024-04-15 01:36 amWSW 9.9 12.0----29.75- 72.1 61.2----
2024-04-15 01:30 amWSW 11.1 13.0----29.75- 72.5 61.2----
2024-04-15 01:24 amWSW 9.9 12.0----29.76- 72.7 61.2----
2024-04-15 01:18 amWSW 9.9 13.0----29.76- 72.9 61.0----
2024-04-15 01:12 amWSW 11.1 13.0----29.76- 73.0 61.0----
2024-04-15 01:06 amWSW 9.9 14.0----29.76- 72.9 61.0----
2024-04-15 01:00 amWSW 12.0 15.0----29.75+0.01 73.8 61.0----
2024-04-15 12:54 amWSW 12.0 15.0----29.75- 73.8 61.0----
2024-04-15 12:48 amWSW 11.1 14.0----29.75- 73.6 61.0----
2024-04-15 12:42 amWSW 11.1 15.0----29.75- 74.1 61.0----
2024-04-15 12:36 amWSW 12.0 15.9----29.75- 74.1 61.0----
2024-04-15 12:30 amWSW 11.1 14.0----29.75- 74.1 61.0----
2024-04-15 12:24 amWSW 12.0 15.9----29.75- 74.3 61.0----
2024-04-15 12:18 amWSW 11.1 15.9----29.76- 74.1 61.0----
2024-04-15 12:12 amWSW 12.0 15.0----29.75- 74.5 61.0----
2024-04-15 12:06 amWSW 12.0 18.1----29.75- 74.8 61.0----
2024-04-15 12:00 amWSW 11.1 15.9----29.75+0.02 74.1 61.0----
2024-04-14 11:54 pmWSW 12.0 15.9----29.75- 74.5 61.0----
2024-04-14 11:48 pmWSW 12.0 15.0----29.75- 75.0 61.0----
2024-04-14 11:42 pmWSW 14.0 19.0----29.75- 74.8 61.0----
2024-04-14 11:36 pmWSW 13.0 15.9----29.75- 74.7 61.0----
2024-04-14 11:30 pmWSW 9.9 13.0----29.75- 74.5 61.0----
2024-04-14 11:24 pm SW 13.0 15.9----29.75- 75.2 61.0----
2024-04-14 11:18 pmWSW 12.0 17.1----29.75- 75.2 61.0----
2024-04-14 11:12 pmWSW 12.0 15.9----29.75- 74.8 61.0----
2024-04-14 11:06 pmWSW 13.0 15.9----29.75- 75.6 61.0----
2024-04-14 11:00 pm SW 13.0 18.1----29.75+0.04 75.6 61.0----
2024-04-14 10:54 pm SW 13.0 18.1----29.74- 75.4 61.0----
2024-04-14 10:48 pmWSW 13.0 15.9----29.74- 75.2 61.0----
2024-04-14 10:42 pm SW 15.0 19.0----29.74- 75.9 61.0----
2024-04-14 10:36 pm SW 13.0 17.1----29.74- 75.9 61.0----
2024-04-14 10:30 pm SW 14.0 18.1----29.74- 76.1 61.0----
2024-04-14 10:24 pm SW 13.0 18.1----29.74- 75.9 61.0----
2024-04-14 10:18 pm SW 13.0 17.1----29.74- 76.1 61.0----
2024-04-14 10:12 pm SW 13.0 20.0----29.74- 76.1 61.0----
2024-04-14 10:06 pm SW 12.0 17.1----29.74- 75.9 61.0----
2024-04-14 10:00 pm SW 12.0 17.1----29.74+0.04 75.7 61.0----
2024-04-14 09:54 pm SW 11.1 19.0----29.75- 75.4 61.2----
2024-04-14 09:48 pm SW 11.1 15.9----29.75- 76.1 61.2----
2024-04-14 09:42 pm SW 12.0 15.9----29.75- 76.5 61.2----
2024-04-14 09:36 pm SW 13.0 18.1----29.75- 76.6 61.2----
2024-04-14 09:30 pm SW 9.9 14.0----29.75- 75.9 61.2----
2024-04-14 09:24 pm SW 9.9 15.9----29.75- 75.6 61.0----
2024-04-14 09:18 pm SW 9.9 15.0----29.75- 76.1 61.0----
2024-04-14 09:12 pm SW 9.9 13.0----29.74- 76.5 61.2----
2024-04-14 09:06 pm SW 11.1 14.0----29.74- 76.3 61.2----
2024-04-14 09:00 pm SW 8.0 11.1----29.73+0.00 75.6 61.2----
2024-04-14 08:54 pm SW 9.9 14.0----29.73- 76.5 61.2----